This is the latest recevied weather packets stored in our database for station/object KE8RXN. If no packets are shown the sender has not sent any weather packets the latest 1 day(s).
| Time | Temp. | Humidity | Pressure | Rain* | Wind** | Luminosity | Snow |
|---|---|---|---|---|---|---|---|
| 1778099661 | 12.78° C | 38% | 1016.4 hPa | 0 mm | - | 566 W/m² | - |
| 1778096932 | 12.22° C | 38% | 1016.8 hPa | 0 mm | - | 638 W/m² | - |
| 1778096629 | 12.78° C | 36% | 1016.4 hPa | 0 mm | - | 134 W/m² | - |
| 1778096023 | 13.33° C | 38% | 1016.6 hPa | 0 mm | - | 657 W/m² | - |
| 1778094507 | 12.78° C | 37% | 1016.5 hPa | 0 mm | - | 734 W/m² | - |
| 1778094203 | 12.22° C | 39% | 1016.8 hPa | 0 mm | - | 746 W/m² | - |
| 1778093900 | 12.22° C | 38% | 1016.7 hPa | 0 mm | - | 686 W/m² | - |
| 1778093597 | 12.22° C | 38% | 1016.6 hPa | 0 mm | - | 737 W/m² | - |
| 1778091778 | 12.22° C | 40% | 1016.5 hPa | 0 mm | - | 777 W/m² | - |
| 1778090566 | 12.22° C | 40% | 1016.7 hPa | 0 mm | - | 160 W/m² | - |
| 1778089354 | 12.22° C | 38% | 1016.6 hPa | 0 mm | - | 836 W/m² | - |
| 1778089052 | 11.67° C | 39% | 1016.7 hPa | 0 mm | - | 787 W/m² | - |
| 1778087234 | 11.11° C | 41% | 1017.1 hPa | 0 mm | - | 219 W/m² | - |
| 1778086629 | 10.56° C | 42% | 1016.9 hPa | 0 mm | - | 213 W/m² | - |
| 1778085720 | 11.67° C | 43% | 1016.9 hPa | 0 mm | - | 284 W/m² | - |
| 1778085416 | 11.67° C | 43% | 1017 hPa | 0 mm | - | 276 W/m² | - |
| 1778083899 | 10.56° C | 45% | 1017.1 hPa | 0 mm | - | 236 W/m² | - |
| 1778083293 | 11.67° C | 42% | 1017 hPa | 0 mm | - | 166 W/m² | - |
| 1778082688 | 11.11° C | 43% | 1017.1 hPa | 0 mm | - | 342 W/m² | - |
| 1778081545 | 11.67° C | 42% | 1017.1 hPa | 0 mm | - | 678 W/m² | - |
| 1778079728 | 10.56° C | 43% | 1017 hPa | 0 mm | - | 746 W/m² | - |
| 1778079425 | 10° C | 45% | 1016.9 hPa | 0 mm | - | 756 W/m² | - |
| 1778077307 | 10.56° C | 48% | 1016.7 hPa | 0 mm | - | 630 W/m² | - |
| 1778076097 | 10° C | 51% | 1016.6 hPa | 0 mm | - | 559 W/m² | - |
| 1778075490 | 8.89° C | 58% | 1016.5 hPa | 0 mm | - | 503 W/m² | - |
* Rain latest hour (hover to see other rain measurements)
** Current wind speed in m/s (hover to see current wind gust speed)